Regional Weather Roundup
Issued by NWS

Home | Current Version | Previous Version | Text Only | Print | Product List | Glossary On
Versions: 1 2 3 4 5 6 7 8 9 10 11 12 13 14 15 16 17 18 19 20 21 22 23 24 25 26 27 28 29 30 31 32 33 34 35 36 37 38 39 40 41 42 43 44 45 46 47 48 49 50
000
ASUS44 KOUN 251910
RWROK

WEATHER ROUNDUP FOR OKLAHOMA
NATIONAL WEATHER SERVICE NORMAN OK
200 PM CDT SAT MAY 25 2019

NOTE: "FAIR" INDICATES FEW OR NO CLOUDS BELOW 12,000 FEET WITH NO
      SIGNIFICANT WEATHER AND/OR OBSTRUCTIONS TO VISIBILITY.

OKZ001>007-009>012-014-015-017-252000-
NORTHWEST OKLAHOMA AND THE PANHANDLE

CITY           SKY/WX    TMP DP  RH WIND       PRES   REMARKS
GAGE           CLOUDY    77  68  73 S13       29.97F
GUYMON         MOSUNNY   81  63  54 SW10G21   29.94F
ENID/WOODRING  CLOUDY    81  72  74 S13G18    29.98F
$$

OKZ016-021>023-033>039-044-045-252000-
SOUTHWEST OKLAHOMA

CITY           SKY/WX    TMP DP  RH WIND       PRES   REMARKS
LAWTON/REGL    CLOUDY    83  71  67 S16G24    29.99F
LAWTON/FT SILL CLOUDY    81  75  81 S14       29.98F
FREDERICK      CLOUDY    82  72  71 S21       29.95F
CLINTON        CLOUDY   N/A N/A N/A S15       30.00F
HOBART         CLOUDY    79  70  74 S14       29.99F
$$

OKZ018>020-024>031-252000-
CENTRAL OKLAHOMA

CITY           SKY/WX    TMP DP  RH WIND       PRES   REMARKS
OKLAHOMA CITY  PTSUNNY   80  71  74 S15       30.01F
OKC/WILEY POST CLOUDY    83  70  64 S14       30.01F
STILLWATER     PTSUNNY   85  69  58 S13       30.00F
GUTHRIE        MOSUNNY   83  70  64 S17       30.00F
$$

OKZ008-013-054>072-252000-
NORTHEAST OKLAHOMA

CITY           SKY/WX    TMP DP  RH WIND       PRES   REMARKS
TULSA          PTSUNNY   84  69  60 S15       30.01F
TULSA/JONES    MOSUNNY   84  67  56 S13       30.02F
PONCA CITY     CLOUDY    81  70  69 MISG      29.99F
BARTLESVILLE   PTSUNNY   81  70  69 S13       30.02F
MUSKOGEE       MOSUNNY   82  71  69 S13       30.07F
$$

OKZ032-040>043-046>053-073>077-252000-
SOUTH CENTRAL/SOUTHEAST OKLAHOMA

CITY           SKY/WX    TMP DP  RH WIND       PRES   REMARKS
ARDMORE/DWNTWN CLOUDY    82  66  57 S9G18     30.02F
MCALESTER      MOSUNNY   83  67  58 S8        30.06F
$$




USA.gov is the U.S. government's official web portal to all federal, state and local government web resources and services.